| time (UTC) | temp F | wind direction | speed MPH | gust MPH | rain 1hr in | rain 24hr in | rain mn in | humidity % | barometer mb |
| 20260505191557 | 48 | 0.0 | 0.0 | 0.00 | 0.00 | 0.00 | 56 | 1012.8 | |
| 20260505190051 | 49 | 0.0 | 0.0 | 0.00 | 0.00 | 0.00 | 54 | 1012.5 | |
| 20260505184551 | 50 | 0.0 | 0.0 | 0.00 | 0.00 | 0.00 | 50 | 1012.6 | |
| 20260505183057 | 50 | 0.0 | 0.0 | 0.00 | 0.00 | 0.00 | 47 | 1012.6 | |
| 20260505181557 | 51 | 0.0 | 0.0 | 0.00 | 0.00 | 0.00 | 46 | 1012.5 | |
| 20260505180058 | 51 | 0.0 | 0.0 | 0.00 | 0.00 | 0.00 | 44 | 1012.5 | |
| 20260505174551 | 52 | 0.0 | 0.0 | 0.00 | 0.00 | 0.00 | 47 | 1012.7 | |
| 20260505173051 | 53 | 0.0 | 0.0 | 0.00 | 0.00 | 0.00 | 43 | 1012.6 | |
| 20260505171556 | 53 | 0.0 | 0.0 | 0.00 | 0.00 | 0.00 | 40 | 1012.5 | |
| 20260505170055 | 54 | 0.0 | 0.0 | 0.00 | 0.00 | 0.00 | 39 | 1012.6 | |
| 20260505164600 | 54 | 0.0 | 0.0 | 0.00 | 0.00 | 0.00 | 40 | 1012.5 | |
| 20260505163047 | 54 | 0.0 | 0.0 | 0.00 | 0.00 | 0.00 | 39 | 1012.4 | |
| 20260505161603 | 55 | 0.0 | 0.0 | 0.00 | 0.00 | 0.00 | 35 | 1012.5 | |
| 20260505153055 | 56 | 0.0 | 0.0 | 0.00 | 0.00 | 0.00 | 40 | 1012.3 | |
| 20260505151556 | 56 | 0.0 | 0.0 | 0.00 | 0.00 | 0.00 | 40 | 1012.3 | |
| 20260505150106 | 57 | 0.0 | 0.0 | 0.00 | 0.00 | 0.00 | 38 | 1012.1 | |
| 20260505130111 | 58 | 0.0 | 0.0 | 0.00 | 0.00 | 0.00 | 47 | 1012.2 | |
| 20260505124554 | 58 | 0.0 | 0.0 | 0.00 | 0.00 | 0.00 | 50 | 1012.4 | |
| 20260505123103 | 59 | 0.0 | 0.0 | 0.00 | 0.00 | 0.00 | 52 | 1012.5 | |
| 20260505121553 | 57 | 0.0 | 0.0 | 0.00 | 0.00 | 0.00 | 62 | 1012.5 | |
| 20260505120104 | 56 | 0.0 | 0.0 | 0.00 | 0.00 | 0.00 | 63 | 1012.3 | |
| 20260505114555 | 56 | 0.0 | 0.0 | 0.00 | 0.00 | 0.00 | 63 | 1012.4 | |
| 20260505113050 | 58 | 0.0 | 0.0 | 0.00 | 0.00 | 0.00 | 60 | 1012.4 | |
| 20260505111552 | 57 | 0.0 | 0.0 | 0.00 | 0.00 | 0.00 | 57 | 1012.4 | |
| 20260505101559 | 56 | 0.0 | 0.0 | 0.00 | 0.00 | 0.00 | 61 | 1012.8 | |
| 20260505100050 | 56 | 0.0 | 0.0 | 0.00 | 0.00 | 0.00 | 61 | 1012.8 | |
| 20260505094607 | 56 | 0.0 | 0.0 | 0.00 | 0.00 | 0.00 | 63 | 1013.0 | |
| 20260505093100 | 57 | 0.0 | 0.0 | 0.00 | 0.00 | 0.00 | 62 | 1013.0 | |
| 20260505091559 | 55 | 0.0 | 0.0 | 0.00 | 0.00 | 0.00 | 66 | 1013.1 | |
| 20260505090058 | 55 | 0.0 | 0.0 | 0.00 | 0.00 | 0.00 | 66 | 1013.0 | |
| 20260505084555 | 55 | 0.0 | 0.0 | 0.00 | 0.00 | 0.00 | 66 | 1013.0 | |
| 20260505083102 | 54 | 0.0 | 0.0 | 0.00 | 0.00 | 0.00 | 66 | 1013.1 | |
| 20260505081557 | 55 | 0.0 | 0.0 | 0.00 | 0.00 | 0.00 | 66 | 1013.0 | |
| 20260505080052 | 54 | 0.0 | 0.0 | 0.00 | 0.00 | 0.00 | 69 | 1013.0 | |
| 20260505074548 | 54 | 0.0 | 0.0 | 0.00 | 0.00 | 0.00 | 68 | 1012.9 | |
| 20260505073054 | 55 | 0.0 | 0.0 | 0.00 | 0.00 | 0.00 | 67 | 1013.0 | |
| 20260505071552 | 53 | 0.0 | 0.0 | 0.00 | 0.00 | 0.00 | 71 | 1012.9 | |
| 20260505070058 | 52 | 0.0 | 0.0 | 0.00 | 0.00 | 0.00 | 76 | 1012.8 | |
| 20260505064555 | 50 | 0.0 | 0.0 | 0.00 | 0.00 | 0.00 | 80 | 1012.7 | |
| 20260505063055 | 50 | 0.0 | 0.0 | 0.00 | 0.00 | 0.00 | 80 | 1012.7 | |
| 20260505061601 | 49 | 0.0 | 0.0 | 0.00 | 0.00 | 0.00 | 83 | 1012.6 | |
| 20260505060055 | 49 | 0.0 | 0.0 | 0.00 | 0.00 | 0.00 | 83 | 1012.5 | |
| 20260505054556 | 48 | 0.0 | 0.0 | 0.00 | 0.00 | 0.00 | 86 | 1012.7 | |
| 20260505053053 | 47 | 0.0 | 0.0 | 0.00 | 0.00 | 0.00 | 86 | 1012.7 | |
| 20260505051552 | 47 | 0.0 | 0.0 | 0.00 | 0.00 | 0.00 | 87 | 1012.6 | |
| 20260505041553 | 45 | 0.0 | 0.0 | 0.00 | 0.00 | 0.00 | 90 | 1012.5 | |
| 20260505040104 | 44 | 0.0 | 0.0 | 0.00 | 0.00 | 0.00 | 90 | 1012.6 | |
| 20260505034552 | 44 | 0.0 | 0.0 | 0.00 | 0.00 | 0.00 | 90 | 1012.6 | |
| 20260505033048 | 44 | 0.0 | 0.0 | 0.00 | 0.00 | 0.00 | 90 | 1012.7 | |
| 20260505031557 | 43 | 0.0 | 0.0 | 0.00 | 0.00 | 0.00 | 90 | 1012.5 | |
| 20260505030058 | 43 | 0.0 | 0.0 | 0.00 | 0.00 | 0.00 | 90 | 1012.5 | |
| 20260505024553 | 43 | 0.0 | 0.0 | 0.00 | 0.00 | 0.00 | 90 | 1012.4 | |
| 20260505023051 | 43 | 0.0 | 0.0 | 0.00 | 0.00 | 0.00 | 89 | 1012.5 | |
| 20260505021549 | 43 | 0.0 | 0.0 | 0.00 | 0.00 | 0.00 | 89 | 1012.5 | |
| 20260505020051 | 43 | 0.0 | 0.0 | 0.00 | 0.00 | 0.00 | 89 | 1012.6 | |
| 20260505014604 | 43 | 0.0 | 0.0 | 0.00 | 0.00 | 0.00 | 89 | 1012.7 | |
| 20260505013051 | 43 | 0.0 | 0.0 | 0.00 | 0.00 | 0.00 | 89 | 1012.8 | |
| 20260505011554 | 44 | 0.0 | 0.0 | 0.00 | 0.00 | 0.00 | 88 | 1012.9 | |
| 20260505010056 | 44 | 0.0 | 0.0 | 0.00 | 0.00 | 0.00 | 88 | 1012.8 | |
| 20260505004556 | 44 | 0.0 | 0.0 | 0.00 | 0.06 | 0.00 | 88 | 1012.8 | |
| 20260505003054 | 44 | 0.0 | 0.0 | 0.00 | 0.06 | 0.00 | 88 | 1013.0 | |
| 20260505001553 | 44 | 0.0 | 0.0 | 0.00 | 0.06 | 0.00 | 87 | 1012.9 | |
| 20260505000055 | 45 | 0.0 | 0.0 | 0.00 | 0.06 | 0.00 | 87 | 1012.9 | |
| 20260504234551 | 45 | 0.0 | 0.0 | 0.00 | 0.09 | 0.00 | 86 | 1013.0 | |
| 20260504233052 | 45 | 0.0 | 0.0 | 0.00 | 0.09 | 0.00 | 86 | 1013.0 | |
| 20260504231549 | 45 | 0.0 | 0.0 | 0.00 | 0.09 | 0.00 | 86 | 1012.9 | |
| 20260504230052 | 45 | 0.0 | 0.0 | 0.00 | 0.09 | 0.00 | 85 | 1013.0 | |
| 20260504224552 | 45 | 0.0 | 0.0 | 0.00 | 0.20 | 0.00 | 84 | 1013.2 | |
| 20260504223050 | 46 | 0.0 | 0.0 | 0.00 | 0.20 | 0.00 | 83 | 1013.1 | |
| 20260504221553 | 46 | 0.0 | 0.0 | 0.00 | 0.20 | 0.00 | 82 | 1013.0 | |
| 20260504220052 | 47 | 0.0 | 0.0 | 0.00 | 0.20 | 0.00 | 81 | 1013.1 | |
| 20260504214558 | 47 | 0.0 | 0.0 | 0.00 | 0.44 | 0.20 | 81 | 1013.2 | |
| 20260504213050 | 47 | 0.0 | 0.0 | 0.00 | 0.44 | 0.20 | 80 | 1013.3 | |
| 20260504211552 | 48 | 0.0 | 0.0 | 0.00 | 0.44 | 0.20 | 78 | 1013.2 | |
| 20260504210104 | 49 | 0.0 | 0.0 | 0.00 | 0.44 | 0.20 | 76 | 1013.3 | |
| 20260504204611 | 50 | 0.0 | 0.0 | 0.00 | 0.48 | 0.20 | 74 | 1013.2 | |
| 20260504203124 | 51 | 0.0 | 0.0 | 0.00 | 0.48 | 0.20 | 72 | 1013.1 | |
| 20260504201553 | 51 | 0.0 | 0.0 | 0.00 | 0.48 | 0.20 | 71 | 1013.0 | |
| 20260504200058 | 52 | 0.0 | 0.0 | 0.00 | 0.48 | 0.20 | 70 | 1013.1 | |
| 20260504194556 | 52 | 0.0 | 0.0 | 0.00 | 0.48 | 0.20 | 69 | 1013.0 | |
| 20260504193058 | 53 | 0.0 | 0.0 | 0.00 | 0.48 | 0.20 | 67 | 1013.0 |